QPF
0.00 0.00 0.00 0.00 0.00 0.00 0.00 0.00 0.00 0.00 0.00 0.00 0.00 0.00 0.00 0.01 0.01 0.02 0.01 0.03 0.03 0.03 0.05 0.05 0.05 0.04 0.05 0.06 0.08 0.13 0.15 0.15 0.11 0.08 0.08 0.08 0.08 0.09 0.09 0.09 0.09 0.08 0.08 0.07 0.05 0.04 0.04 0.04 0.04
0.00 0.00 0.00 0.00 0.00 0.01 0.01 0.00 0.00 0.00 0.00 0.00 0.00 0.00 0.00 0.00 0.00 0.01 0.01 0.02 0.02 0.03 0.04 0.03 0.03 0.02 0.02 0.03 0.05 0.12 0.15 0.14 0.11 0.10 0.10 0.10 0.10 0.10 0.09 0.09 0.07 0.08 0.09 0.07 0.05 0.05 0.05 0.05 0.05
0.00 0.00 0.00 0.00 0.00 0.01 0.01 0.00 0.00 0.00 0.00 0.00 0.00 0.00 0.00 0.00 0.00 0.01 0.01 0.02 0.01 0.02 0.03 0.03 0.02 0.02 0.02 0.02 0.03 0.07 0.11 0.12 0.12 0.11 0.11 0.10 0.09 0.09 0.08 0.07 0.07 0.08 0.07 0.05 0.04 0.04 0.04 0.04 0.03
0.00 0.00 0.00 0.00 0.00 0.00 0.00 0.00 0.00 0.00 0.00 0.00 0.00 0.00 0.00 0.00 0.00 0.00 0.01 0.01 0.01 0.02 0.02 0.02 0.03 0.01 0.01 0.01 0.02 0.04 0.08 0.10 0.11 0.10 0.09 0.08 0.08 0.08 0.05 0.05 0.06 0.06 0.05 0.03 0.04 0.03 0.03 0.04 0.02
0.00 0.00 0.00 0.00 0.00 0.00 0.00 0.00 0.00 0.00 0.00 0.00 0.00 0.01 0.01 0.01 0.00 0.00 0.00 0.00 0.00 0.01 0.02 0.02 0.02 0.01 0.01 0.01 0.01 0.02 0.07 0.09 0.08 0.07 0.07 0.08 0.07 0.06 0.05 0.06 0.06 0.05 0.03 0.02 0.03 0.03 0.03 0.03 0.02
0.00 0.00 0.00 0.00 0.00 0.00 0.00 0.00 0.00 0.00 0.00 0.00 0.01 0.01 0.01 0.01 0.00 0.00 0.00 0.01 0.01 0.01 0.02 0.02 0.02 0.02 0.01 0.01 0.01 0.01 0.03 0.04 0.04 0.05 0.05 0.05 0.06 0.05 0.05 0.06 0.07 0.04 0.03 0.03 0.04 0.04 0.02 0.02 0.02
0.00 0.00 0.00 0.00 0.00 0.00 0.00 0.00 0.00 0.00 0.00 0.00 0.00 0.01 0.01 0.01 0.01 0.00 0.00 0.01 0.01 0.01 0.02 0.02 0.02 0.02 0.01 0.01 0.01 0.01 0.02 0.02 0.03 0.03 0.03 0.03 0.04 0.04 0.04 0.05 0.06 0.04 0.04 0.04 0.04 0.03 0.02 0.02 0.02
0.00 0.00 0.00 0.00 0.00 0.00 0.00 0.00 0.00 0.00 0.00 0.00 0.01 0.01 0.00 0.01 0.01 0.01 0.01 0.01 0.00 0.01 0.01 0.01 0.02 0.03 0.02 0.02 0.01 0.01 0.01 0.02 0.02 0.02 0.02 0.02 0.03 0.03 0.03 0.03 0.03 0.03 0.04 0.04 0.05 0.05 0.03 0.03 0.03
0.00 0.00 0.00 0.00 0.00 0.00 0.00 0.00 0.00 0.00 0.00 0.00 0.00 0.02 0.01 0.01 0.01 0.01 0.01 0.01 0.01 0.01 0.01 0.01 0.01 0.02 0.02 0.02 0.02 0.02 0.02 0.02 0.02 0.02 0.02 0.02 0.04 0.03 0.03 0.02 0.03 0.03 0.03 0.04 0.04 0.05 0.03 0.02 0.02
0.00 0.00 0.00 0.00 0.00 0.00 0.00 0.00 0.00 0.00 0.00 0.00 0.00 0.01 0.02 0.02 0.01 0.01 0.00 0.00 0.01 0.01 0.01 0.01 0.01 0.01 0.01 0.01 0.03 0.05 0.02 0.02 0.03 0.02 0.02 0.03 0.04 0.05 0.02 0.02 0.03 0.03 0.03 0.02 0.03 0.03 0.01 0.01 0.02
0.00 0.00 0.00 0.00 0.00 0.00 0.00 0.00 0.00 0.00 0.00 0.00 0.00 0.01 0.02 0.02 0.01 0.00 0.00 0.00 0.00 0.00 0.00 0.00 0.01 0.01 0.01 0.02 0.02 0.03 0.02 0.02 0.02 0.02 0.02 0.02 0.02 0.03 0.03 0.03 0.03 0.03 0.02 0.02 0.01 0.01 0.01 0.01 0.02
0.00 0.00 0.00 0.00 0.00 0.00 0.00 0.00 0.00 0.00 0.00 0.00 0.00 0.00 0.01 0.01 0.01 0.00 0.00 0.00 0.00 0.00 0.00 0.00 0.00 0.01 0.01 0.01 0.01 0.01 0.01 0.01 0.01 0.01 0.01 0.01 0.02 0.02 0.02 0.03 0.02 0.01 0.02 0.03 0.02 0.04 0.03 0.02 0.02
0.00 0.00 0.00 0.00 0.00 0.00 0.00 0.00 0.00 0.00 0.00 0.00 0.00 0.00 0.00 0.00 0.00 0.00 0.00 0.00 0.00 0.00 0.00 0.00 0.00 0.00 0.01 0.01 0.01 0.01 0.01 0.00 0.01 0.01 0.00 0.01 0.01 0.01 0.02 0.03 0.03 0.02 0.02 0.03 0.03 0.02 0.03 0.03 0.04
0.00 0.00 0.00 0.00 0.00 0.00 0.00 0.00 0.00 0.00 0.00 0.00 0.00 0.00 0.00 0.00 0.00 0.00 0.00 0.00 0.00 0.00 0.00 0.00 0.01 0.01 0.01 0.01 0.02 0.01 0.01 0.01 0.01 0.02 0.01 0.01 0.01 0.02 0.03 0.04 0.05 0.04 0.03 0.03 0.03 0.01 0.02 0.03 0.04
0.00 0.00 0.00 0.00 0.00 0.00 0.00 0.00 0.00 0.00 0.00 0.00 0.00 0.00 0.00 0.00 0.00 0.00 0.00 0.00 0.00 0.00 0.00 0.01 0.01 0.01 0.01 0.01 0.01 0.01 0.01 0.01 0.02 0.02 0.01 0.02 0.02 0.04 0.04 0.04 0.05 0.05 0.04 0.05 0.05 0.03 0.03 0.03 0.04
0.00 0.00 0.00 0.00 0.00 0.00 0.00 0.00 0.00 0.00 0.00 0.00 0.00 0.00 0.00 0.00 0.00 0.00 0.00 0.00 0.00 0.00 0.00 0.01 0.00 0.00 0.01 0.01 0.01 0.00 0.01 0.01 0.01 0.01 0.02 0.04 0.04 0.04 0.05 0.06 0.06 0.06 0.05 0.06 0.06 0.04 0.04 0.05 0.06
0.00 0.00 0.00 0.00 0.00 0.00 0.00 0.00 0.00 0.00 0.00 0.00 0.00 0.00 0.00 0.00 0.01 0.00 0.00 0.00 0.00 0.00 0.00 0.01 0.00 0.00 0.01 0.02 0.02 0.01 0.01 0.01 0.02 0.02 0.03 0.05 0.05 0.04 0.05 0.06 0.07 0.06 0.05 0.05 0.03 0.03 0.05 0.06 0.07
0.00 0.00 0.00 0.00 0.00 0.00 0.00 0.00 0.00 0.00 0.00 0.00 0.00 0.00 0.00 0.00 0.00 0.00 0.00 0.00 0.00 0.00 0.00 0.01 0.02 0.02 0.01 0.01 0.02 0.03 0.02 0.01 0.02 0.03 0.04 0.06 0.06 0.05 0.05 0.05 0.07 0.06 0.06 0.07 0.06 0.07 0.08 0.07 0.07
0.00 0.00 0.00 0.00 0.00 0.00 0.00 0.00 0.00 0.00 0.00 0.00 0.00 0.00 0.00 0.00 0.00 0.00 0.00 0.00 0.00 0.00 0.01 0.02 0.04 0.03 0.02 0.01 0.02 0.03 0.03 0.02 0.02 0.03 0.04 0.05 0.04 0.04 0.05 0.06 0.09 0.07 0.07 0.08 0.06 0.07 0.08 0.07 0.07
0.00 0.00 0.00 0.00 0.00 0.00 0.00 0.00 0.00 0.00 0.00 0.00 0.00 0.00 0.00 0.00 0.00 0.00 0.00 0.00 0.00 0.01 0.01 0.02 0.03 0.03 0.02 0.02 0.02 0.03 0.04 0.03 0.03 0.05 0.05 0.04 0.03 0.04 0.04 0.07 0.08 0.08 0.08 0.08 0.07 0.09 0.10 0.08 0.07
0.00 0.00 0.00 0.00 0.00 0.00 0.00 0.00 0.00 0.00 0.00 0.00 0.00 0.00 0.00 0.00 0.00 0.00 0.00 0.00 0.01 0.02 0.02 0.02 0.02 0.02 0.03 0.04 0.03 0.04 0.04 0.04 0.04 0.05 0.06 0.04 0.04 0.04 0.06 0.07 0.07 0.10 0.08 0.09 0.09 0.09 0.10 0.10 0.07
0.00 0.00 0.00 0.00 0.00 0.00 0.00 0.00 0.00 0.00 0.00 0.00 0.00 0.00 0.00 0.00 0.00 0.00 0.00 0.00 0.02 0.02 0.02 0.02 0.03 0.03 0.05 0.04 0.03 0.04 0.04 0.04 0.04 0.06 0.06 0.06 0.05 0.04 0.06 0.07 0.09 0.11 0.08 0.09 0.07 0.07 0.08 0.09 0.08
0.00 0.00 0.00 0.00 0.00 0.00 0.00 0.00 0.00 0.00 0.00 0.00 0.00 0.00 0.00 0.00 0.00 0.00 0.00 0.00 0.01 0.02 0.03 0.04 0.03 0.04 0.05 0.04 0.04 0.07 0.05 0.06 0.07 0.08 0.08 0.07 0.06 0.05 0.06 0.09 0.11 0.11 0.09 0.09 0.08 0.08 0.08 0.08 0.09
0.00 0.00 0.00 0.00 0.00 0.00 0.00 0.00 0.00 0.00 0.00 0.00 0.00 0.00 0.00 0.00 0.00 0.00 0.00 0.00 0.02 0.03 0.04 0.06 0.04 0.03 0.04 0.04 0.04 0.05 0.04 0.07 0.09 0.09 0.08 0.06 0.05 0.04 0.05 0.06 0.10 0.10 0.11 0.10 0.10 0.09 0.07 0.06 0.08
0.00 0.00 0.00 0.00 0.00 0.00 0.00 0.00 0.00 0.00 0.00 0.00 0.00 0.00 0.00 0.00 0.00 0.00 0.00 0.01 0.01 0.01 0.03 0.04 0.02 0.02 0.03 0.03 0.03 0.04 0.05 0.07 0.09 0.10 0.09 0.08 0.05 0.04 0.05 0.06 0.09 0.09 0.10 0.09 0.10 0.10 0.09 0.08 0.08
0.00 0.00 0.00 0.00 0.00 0.00 0.00 0.00 0.00 0.00 0.00 0.00 0.00 0.00 0.00 0.00 0.00 0.00 0.00 0.01 0.00 0.00 0.01 0.02 0.02 0.02 0.02 0.02 0.03 0.03 0.04 0.04 0.04 0.06 0.07 0.07 0.05 0.04 0.04 0.06 0.07 0.09 0.10 0.11 0.12 0.10 0.09 0.06 0.07
0.00 0.00 0.00 0.00 0.00 0.00 0.00 0.00 0.00 0.00 0.00 0.00 0.00 0.00 0.00 0.00 0.00 0.00 0.00 0.00 0.00 0.01 0.01 0.02 0.02 0.02 0.02 0.02 0.03 0.04 0.03 0.03 0.03 0.05 0.05 0.05 0.06 0.04 0.04 0.05 0.06 0.09 0.10 0.09 0.08 0.06 0.05 0.05 0.04
0.00 0.00 0.00 0.00 0.00 0.00 0.00 0.00 0.00 0.00 0.00 0.00 0.00 0.00 0.00 0.00 0.00 0.00 0.00 0.01 0.01 0.02 0.02 0.02 0.02 0.02 0.02 0.02 0.02 0.03 0.03 0.02 0.03 0.03 0.04 0.04 0.06 0.05 0.05 0.06 0.05 0.05 0.05 0.06 0.06 0.05 0.04 0.05 0.05
0.00 0.00 0.00 0.00 0.00 0.00 0.00 0.00 0.00 0.00 0.00 0.00 0.00 0.00 0.00 0.00 0.00 0.00 0.00 0.02 0.03 0.04 0.05 0.05 0.04 0.02 0.02 0.02 0.02 0.02 0.02 0.03 0.03 0.04 0.05 0.05 0.05 0.06 0.05 0.05 0.05 0.05 0.05 0.06 0.06 0.05 0.05 0.05 0.05
0.00 0.00 0.00 0.00 0.00 0.00 0.00 0.00 0.00 0.00 0.00 0.00 0.00 0.00 0.00 0.00 0.00 0.00 0.01 0.02 0.04 0.04 0.04 0.03 0.04 0.03 0.03 0.03 0.03 0.04 0.04 0.06 0.05 0.04 0.05 0.04 0.04 0.05 0.05 0.05 0.05 0.04 0.04 0.06 0.07 0.08 0.07 0.07 0.07
MSLP
1007.37 1007.63 1008.08 1008.63 1009.20 1009.70 1010.09 1010.35 1010.50 1010.56 1010.60 1010.67 1010.80 1010.98 1011.20 1011.43 1011.63 1011.78 1011.87 1011.93 1011.98 1012.06 1012.21 1012.43 1012.72 1013.04 1013.33 1013.56 1013.70 1013.74 1013.71 1013.63 1013.57 1013.55 1013.61 1013.74 1013.92 1014.13 1014.32 1014.47 1014.57 1014.62 1014.66 1014.72 1014.80 1014.93 1015.09 1015.26 1015.40
1007.42 1007.82 1008.38 1009.00 1009.59 1010.08 1010.41 1010.59 1010.63 1010.60 1010.56 1010.56 1010.64 1010.80 1011.01 1011.24 1011.45 1011.62 1011.74 1011.84 1011.94 1012.09 1012.32 1012.62 1012.98 1013.36 1013.71 1013.98 1014.16 1014.22 1014.21 1014.15 1014.10 1014.10 1014.16 1014.28 1014.45 1014.62 1014.77 1014.87 1014.92 1014.95 1014.96 1015.01 1015.10 1015.24 1015.41 1015.57 1015.70
1007.59 1008.10 1008.73 1009.38 1009.96 1010.39 1010.64 1010.72 1010.67 1010.57 1010.48 1010.45 1010.52 1010.69 1010.91 1011.16 1011.38 1011.56 1011.69 1011.81 1011.94 1012.13 1012.40 1012.77 1013.19 1013.64 1014.05 1014.37 1014.59 1014.69 1014.71 1014.67 1014.64 1014.64 1014.69 1014.80 1014.94 1015.07 1015.17 1015.23 1015.25 1015.25 1015.26 1015.31 1015.42 1015.58 1015.76 1015.92 1016.03
1007.86 1008.44 1009.10 1009.73 1010.25 1010.59 1010.75 1010.73 1010.61 1010.46 1010.35 1010.34 1010.45 1010.66 1010.92 1011.20 1011.44 1011.62 1011.75 1011.86 1011.99 1012.19 1012.49 1012.89 1013.37 1013.86 1014.32 1014.70 1014.95 1015.09 1015.14 1015.13 1015.10 1015.11 1015.16 1015.25 1015.36 1015.46 1015.53 1015.56 1015.57 1015.57 1015.59 1015.66 1015.80 1015.97 1016.16 1016.32 1016.41
1008.21 1008.81 1009.45 1010.02 1010.44 1010.67 1010.71 1010.60 1010.43 1010.26 1010.19 1010.23 1010.41 1010.70 1011.03 1011.35 1011.61 1011.79 1011.91 1011.99 1012.11 1012.30 1012.59 1013.01 1013.50 1014.02 1014.52 1014.92 1015.21 1015.38 1015.45 1015.46 1015.45 1015.47 1015.52 1015.60 1015.70 1015.79 1015.85 1015.88 1015.89 1015.91 1015.96 1016.06 1016.21 1016.41 1016.59 1016.74 1016.80
1008.58 1009.17 1009.74 1010.20 1010.49 1010.60 1010.53 1010.35 1010.15 1010.00 1009.98 1010.12 1010.40 1010.79 1011.20 1011.58 1011.87 1012.05 1012.15 1012.20 1012.28 1012.44 1012.71 1013.11 1013.60 1014.12 1014.62 1015.04 1015.34 1015.53 1015.61 1015.64 1015.65 1015.68 1015.74 1015.84 1015.95 1016.05 1016.12 1016.17 1016.20 1016.25 1016.33 1016.45 1016.63 1016.82 1017.00 1017.12 1017.16
1008.95 1009.47 1009.94 1010.27 1010.43 1010.40 1010.24 1010.01 1009.80 1009.69 1009.76 1010.00 1010.40 1010.89 1011.40 1011.84 1012.17 1012.35 1012.43 1012.45 1012.49 1012.61 1012.84 1013.20 1013.67 1014.17 1014.65 1015.06 1015.35 1015.54 1015.63 1015.68 1015.71 1015.77 1015.86 1015.98 1016.11 1016.24 1016.34 1016.42 1016.48 1016.56 1016.66 1016.80 1016.97 1017.16 1017.32 1017.41 1017.42
1009.28 1009.71 1010.05 1010.24 1010.26 1010.13 1009.88 1009.62 1009.42 1009.38 1009.53 1009.88 1010.40 1010.99 1011.58 1012.08 1012.44 1012.63 1012.70 1012.70 1012.71 1012.79 1012.99 1013.31 1013.73 1014.19 1014.64 1015.01 1015.29 1015.47 1015.57 1015.62 1015.68 1015.77 1015.89 1016.05 1016.22 1016.39 1016.52 1016.63 1016.71 1016.80 1016.91 1017.04 1017.21 1017.37 1017.50 1017.57 1017.56
1009.54 1009.86 1010.07 1010.14 1010.04 1009.81 1009.52 1009.24 1009.07 1009.09 1009.32 1009.77 1010.37 1011.05 1011.71 1012.26 1012.64 1012.85 1012.92 1012.92 1012.91 1012.97 1013.14 1013.42 1013.80 1014.22 1014.62 1014.96 1015.21 1015.38 1015.47 1015.54 1015.63 1015.74 1015.91 1016.10 1016.31 1016.50 1016.66 1016.78 1016.88 1016.96 1017.06 1017.18 1017.32 1017.45 1017.56 1017.61 1017.60
1009.74 1009.95 1010.05 1010.00 1009.82 1009.53 1009.20 1008.93 1008.78 1008.85 1009.15 1009.66 1010.32 1011.04 1011.74 1012.32 1012.74 1012.97 1013.06 1013.07 1013.07 1013.13 1013.29 1013.55 1013.90 1014.27 1014.64 1014.94 1015.16 1015.31 1015.41 1015.49 1015.60 1015.75 1015.94 1016.17 1016.40 1016.61 1016.78 1016.91 1016.99 1017.06 1017.14 1017.23 1017.33 1017.44 1017.53 1017.58 1017.58
1009.89 1010.01 1010.01 1009.88 1009.63 1009.31 1008.97 1008.70 1008.59 1008.69 1009.01 1009.54 1010.22 1010.96 1011.67 1012.27 1012.70 1012.97 1013.09 1013.14 1013.18 1013.27 1013.43 1013.69 1014.02 1014.37 1014.70 1014.97 1015.17 1015.31 1015.41 1015.51 1015.63 1015.81 1016.03 1016.27 1016.52 1016.74 1016.90 1017.01 1017.08 1017.13 1017.17 1017.24 1017.32 1017.41 1017.50 1017.56 1017.58
1010.03 1010.07 1010.00 1009.82 1009.53 1009.19 1008.85 1008.59 1008.49 1008.59 1008.91 1009.43 1010.08 1010.80 1011.49 1012.09 1012.54 1012.84 1013.02 1013.13 1013.23 1013.36 1013.57 1013.84 1014.16 1014.49 1014.80 1015.05 1015.24 1015.37 1015.48 1015.59 1015.73 1015.92 1016.16 1016.42 1016.67 1016.88 1017.03 1017.13 1017.17 1017.20 1017.22 1017.27 1017.34 1017.43 1017.52 1017.61 1017.67
1010.18 1010.17 1010.06 1009.84 1009.54 1009.19 1008.85 1008.60 1008.48 1008.56 1008.84 1009.30 1009.90 1010.56 1011.22 1011.80 1012.27 1012.62 1012.87 1013.05 1013.22 1013.42 1013.67 1013.97 1014.30 1014.63 1014.92 1015.16 1015.34 1015.47 1015.58 1015.71 1015.87 1016.07 1016.32 1016.57 1016.82 1017.03 1017.17 1017.25 1017.29 1017.30 1017.32 1017.36 1017.44 1017.54 1017.66 1017.78 1017.88
1010.38 1010.34 1010.20 1009.97 1009.66 1009.31 1008.98 1008.71 1008.56 1008.58 1008.79 1009.16 1009.68 1010.27 1010.87 1011.44 1011.93 1012.33 1012.64 1012.91 1013.17 1013.43 1013.73 1014.07 1014.41 1014.74 1015.03 1015.26 1015.44 1015.57 1015.69 1015.83 1016.00 1016.21 1016.46 1016.72 1016.96 1017.17 1017.31 1017.39 1017.43 1017.46 1017.49 1017.55 1017.64 1017.77 1017.92 1018.07 1018.20
1010.65 1010.59 1010.45 1010.21 1009.90 1009.55 1009.20 1008.90 1008.69 1008.64 1008.75 1009.02 1009.43 1009.94 1010.49 1011.04 1011.55 1012.00 1012.39 1012.74 1013.07 1013.40 1013.75 1014.11 1014.46 1014.79 1015.08 1015.31 1015.49 1015.63 1015.77 1015.91 1016.09 1016.31 1016.56 1016.82 1017.07 1017.28 1017.43 1017.53 1017.59 1017.64 1017.70 1017.79 1017.92 1018.07 1018.25 1018.43 1018.58
1010.99 1010.93 1010.78 1010.55 1010.24 1009.88 1009.51 1009.15 1008.88 1008.72 1008.72 1008.87 1009.18 1009.60 1010.10 1010.63 1011.15 1011.65 1012.10 1012.53 1012.92 1013.31 1013.70 1014.08 1014.44 1014.77 1015.06 1015.29 1015.48 1015.64 1015.79 1015.95 1016.14 1016.36 1016.61 1016.87 1017.12 1017.34 1017.52 1017.65 1017.75 1017.83 1017.93 1018.05 1018.20 1018.39 1018.58 1018.77 1018.94
1011.37 1011.32 1011.18 1010.96 1010.66 1010.29 1009.87 1009.46 1009.09 1008.82 1008.69 1008.72 1008.91 1009.24 1009.69 1010.20 1010.74 1011.27 1011.78 1012.27 1012.72 1013.15 1013.56 1013.96 1014.33 1014.66 1014.96 1015.20 1015.41 1015.58 1015.75 1015.93 1016.12 1016.35 1016.61 1016.87 1017.13 1017.36 1017.56 1017.72 1017.86 1017.99 1018.12 1018.27 1018.44 1018.64 1018.85 1019.04 1019.21
1011.76 1011.72 1011.61 1011.42 1011.13 1010.74 1010.29 1009.80 1009.33 1008.93 1008.66 1008.55 1008.62 1008.86 1009.24 1009.73 1010.27 1010.84 1011.39 1011.92 1012.42 1012.88 1013.32 1013.73 1014.11 1014.45 1014.76 1015.04 1015.27 1015.48 1015.67 1015.86 1016.08 1016.31 1016.56 1016.82 1017.08 1017.33 1017.55 1017.75 1017.92 1018.08 1018.24 1018.41 1018.59 1018.79 1018.99 1019.17 1019.34
1012.10 1012.11 1012.04 1011.88 1011.61 1011.22 1010.72 1010.15 1009.57 1009.04 1008.62 1008.36 1008.30 1008.43 1008.73 1009.18 1009.72 1010.30 1010.88 1011.45 1011.98 1012.47 1012.93 1013.36 1013.77 1014.14 1014.49 1014.80 1015.08 1015.33 1015.56 1015.78 1016.00 1016.23 1016.48 1016.74 1017.00 1017.25 1017.49 1017.71 1017.90 1018.09 1018.26 1018.44 1018.62 1018.81 1018.99 1019.17 1019.33
1012.36 1012.43 1012.42 1012.32 1012.08 1011.69 1011.15 1010.51 1009.80 1009.12 1008.54 1008.12 1007.91 1007.91 1008.13 1008.52 1009.03 1009.61 1010.21 1010.80 1011.36 1011.89 1012.38 1012.85 1013.30 1013.72 1014.13 1014.50 1014.84 1015.15 1015.42 1015.66 1015.90 1016.13 1016.36 1016.61 1016.86 1017.12 1017.36 1017.60 1017.82 1018.02 1018.20 1018.38 1018.55 1018.73 1018.90 1019.06 1019.22
1012.51 1012.65 1012.74 1012.71 1012.52 1012.14 1011.57 1010.84 1010.01 1009.17 1008.41 1007.82 1007.44 1007.30 1007.41 1007.71 1008.18 1008.74 1009.34 1009.95 1010.55 1011.11 1011.65 1012.18 1012.69 1013.19 1013.67 1014.12 1014.54 1014.91 1015.23 1015.51 1015.75 1015.98 1016.20 1016.42 1016.66 1016.91 1017.17 1017.41 1017.65 1017.87 1018.07 1018.25 1018.42 1018.58 1018.74 1018.91 1019.08
1012.54 1012.78 1012.96 1013.02 1012.89 1012.53 1011.94 1011.13 1010.18 1009.18 1008.25 1007.46 1006.90 1006.61 1006.58 1006.79 1007.18 1007.71 1008.31 1008.93 1009.56 1010.17 1010.77 1011.37 1011.96 1012.54 1013.12 1013.66 1014.16 1014.59 1014.96 1015.27 1015.52 1015.74 1015.95 1016.16 1016.38 1016.63 1016.89 1017.15 1017.42 1017.66 1017.88 1018.08 1018.26 1018.42 1018.59 1018.76 1018.94
1012.48 1012.82 1013.10 1013.25 1013.19 1012.85 1012.24 1011.36 1010.30 1009.15 1008.05 1007.08 1006.34 1005.88 1005.70 1005.80 1006.12 1006.60 1007.18 1007.81 1008.46 1009.12 1009.79 1010.46 1011.13 1011.81 1012.47 1013.10 1013.67 1014.17 1014.59 1014.92 1015.18 1015.40 1015.59 1015.78 1016.00 1016.25 1016.52 1016.82 1017.12 1017.40 1017.66 1017.89 1018.10 1018.28 1018.46 1018.65 1018.85
1012.34 1012.77 1013.15 1013.39 1013.38 1013.08 1012.45 1011.52 1010.37 1009.10 1007.84 1006.71 1005.80 1005.18 1004.87 1004.85 1005.08 1005.50 1006.05 1006.68 1007.35 1008.05 1008.77 1009.50 1010.25 1011.01 1011.75 1012.45 1013.09 1013.64 1014.10 1014.45 1014.72 1014.93 1015.11 1015.30 1015.52 1015.78 1016.08 1016.41 1016.76 1017.10 1017.41 1017.70 1017.94 1018.16 1018.37 1018.58 1018.79
1012.16 1012.65 1013.11 1013.41 1013.46 1013.18 1012.55 1011.60 1010.38 1009.03 1007.66 1006.40 1005.36 1004.61 1004.17 1004.04 1004.18 1004.54 1005.04 1005.66 1006.33 1007.05 1007.81 1008.59 1009.39 1010.20 1011.00 1011.75 1012.43 1013.02 1013.49 1013.86 1014.14 1014.35 1014.53 1014.73 1014.96 1015.24 1015.58 1015.96 1016.36 1016.76 1017.14 1017.48 1017.77 1018.04 1018.27 1018.50 1018.73
1011.94 1012.47 1012.96 1013.30 1013.39 1013.14 1012.53 1011.57 1010.34 1008.95 1007.52 1006.19 1005.07 1004.22 1003.69 1003.47 1003.52 1003.81 1004.27 1004.85 1005.51 1006.23 1006.99 1007.78 1008.60 1009.44 1010.25 1011.02 1011.72 1012.32 1012.81 1013.19 1013.48 1013.70 1013.90 1014.11 1014.36 1014.67 1015.05 1015.47 1015.92 1016.38 1016.82 1017.21 1017.56 1017.86 1018.13 1018.38 1018.61
1011.68 1012.21 1012.70 1013.05 1013.15 1012.93 1012.35 1011.43 1010.23 1008.86 1007.45 1006.11 1004.95 1004.06 1003.47 1003.18 1003.17 1003.39 1003.79 1004.32 1004.94 1005.63 1006.36 1007.14 1007.94 1008.76 1009.56 1010.32 1011.01 1011.61 1012.11 1012.50 1012.80 1013.04 1013.26 1013.50 1013.77 1014.11 1014.52 1014.98 1015.47 1015.96 1016.44 1016.87 1017.26 1017.60 1017.89 1018.15 1018.39
1011.39 1011.87 1012.32 1012.65 1012.75 1012.55 1012.02 1011.17 1010.05 1008.76 1007.41 1006.12 1005.00 1004.11 1003.50 1003.17 1003.11 1003.27 1003.61 1004.08 1004.64 1005.27 1005.95 1006.67 1007.43 1008.19 1008.95 1009.68 1010.35 1010.93 1011.43 1011.83 1012.15 1012.42 1012.67 1012.93 1013.24 1013.60 1014.02 1014.49 1014.99 1015.50 1015.99 1016.44 1016.85 1017.21 1017.52 1017.80 1018.06
1011.05 1011.44 1011.82 1012.09 1012.17 1012.00 1011.52 1010.77 1009.77 1008.60 1007.38 1006.20 1005.16 1004.32 1003.73 1003.39 1003.29 1003.40 1003.67 1004.06 1004.55 1005.11 1005.72 1006.37 1007.05 1007.75 1008.45 1009.12 1009.75 1010.31 1010.80 1011.21 1011.56 1011.86 1012.15 1012.44 1012.77 1013.14 1013.55 1014.01 1014.49 1014.98 1015.46 1015.90 1016.31 1016.68 1017.02 1017.32 1017.61
1010.66 1010.94 1011.22 1011.42 1011.47 1011.31 1010.90 1010.25 1009.39 1008.39 1007.32 1006.28 1005.35 1004.59 1004.03 1003.70 1003.57 1003.64 1003.85 1004.18 1004.60 1005.08 1005.61 1006.19 1006.79 1007.41 1008.03 1008.64 1009.22 1009.75 1010.23 1010.65 1011.03 1011.36 1011.68 1012.00 1012.34 1012.70 1013.10 1013.52 1013.96 1014.41 1014.85 1015.27 1015.67 1016.05 1016.41 1016.76 1017.11
Thickness
5844 5850 5851 5845 5836 5824 5807 5809 5815 5811 5811 5815 5815 5811 5802 5794 5788 5774 5790 5797 5795 5792 5786 5781 5778 5778 5777 5776 5776 5775 5774 5773 5771 5770 5769 5768 5768 5767 5766 5765 5764 5763 5762 5761 5760 5758 5757 5756 5755
5853 5853 5847 5844 5830 5807 5802 5814 5812 5812 5815 5818 5814 5809 5801 5791 5793 5790 5793 5795 5795 5792 5787 5782 5777 5776 5775 5774 5773 5772 5771 5770 5769 5768 5767 5766 5765 5765 5764 5763 5762 5761 5760 5759 5757 5756 5754 5753 5752
5855 5854 5846 5841 5823 5810 5805 5816 5815 5818 5822 5818 5808 5806 5797 5787 5791 5792 5795 5796 5794 5791 5786 5779 5776 5774 5773 5772 5771 5770 5769 5768 5767 5766 5765 5764 5764 5763 5762 5761 5760 5759 5758 5757 5755 5754 5753 5751 5750
5854 5852 5849 5836 5817 5819 5820 5822 5823 5818 5818 5818 5811 5799 5796 5796 5797 5797 5797 5796 5793 5790 5786 5778 5774 5772 5771 5770 5769 5768 5767 5766 5765 5764 5763 5763 5762 5761 5760 5759 5758 5757 5755 5754 5753 5752 5750 5749 5748
5856 5849 5835 5825 5819 5824 5830 5830 5829 5820 5814 5814 5811 5795 5787 5795 5801 5799 5796 5795 5793 5790 5785 5778 5772 5771 5769 5768 5767 5766 5765 5763 5763 5762 5761 5760 5759 5758 5758 5757 5756 5755 5753 5752 5751 5750 5749 5747 5746
5849 5846 5830 5819 5817 5825 5831 5834 5831 5822 5816 5813 5809 5797 5786 5795 5797 5796 5797 5795 5795 5790 5785 5776 5771 5769 5768 5766 5765 5763 5762 5761 5760 5760 5759 5758 5757 5756 5756 5755 5753 5753 5752 5750 5750 5749 5747 5746 5745
5842 5839 5827 5825 5820 5822 5828 5836 5831 5823 5815 5815 5815 5798 5787 5791 5796 5797 5795 5794 5793 5790 5786 5779 5774 5769 5766 5764 5763 5761 5760 5759 5758 5758 5757 5756 5755 5754 5753 5752 5751 5751 5750 5749 5748 5747 5746 5745 5743
5848 5841 5828 5827 5822 5822 5833 5836 5835 5828 5818 5823 5819 5801 5790 5792 5797 5796 5793 5791 5789 5787 5785 5781 5777 5773 5770 5766 5762 5760 5759 5758 5757 5756 5755 5755 5754 5753 5752 5751 5750 5749 5748 5747 5746 5745 5744 5743 5742
5846 5834 5825 5828 5827 5828 5836 5832 5833 5837 5825 5821 5820 5816 5811 5802 5798 5792 5787 5785 5784 5783 5782 5782 5777 5773 5772 5769 5763 5761 5758 5757 5756 5755 5754 5755 5757 5756 5753 5750 5748 5747 5746 5746 5745 5744 5743 5743 5742
5839 5828 5829 5838 5841 5838 5837 5835 5833 5828 5819 5814 5811 5811 5808 5801 5795 5789 5785 5782 5781 5779 5780 5781 5778 5774 5773 5770 5765 5764 5762 5759 5759 5758 5757 5757 5755 5755 5754 5748 5747 5746 5745 5745 5744 5744 5744 5746 5746
5835 5829 5834 5840 5845 5844 5839 5837 5839 5829 5817 5819 5813 5806 5803 5798 5794 5790 5787 5786 5783 5781 5780 5779 5776 5774 5773 5770 5767 5766 5763 5760 5759 5757 5756 5755 5755 5754 5753 5751 5748 5747 5747 5748 5745 5747 5749 5749 5747
5829 5831 5835 5839 5844 5842 5839 5838 5834 5832 5829 5834 5827 5816 5806 5799 5796 5793 5789 5786 5785 5782 5780 5779 5776 5772 5770 5770 5768 5766 5764 5762 5761 5756 5757 5756 5755 5754 5753 5751 5751 5750 5749 5747 5749 5747 5747 5746 5746
5823 5827 5834 5839 5842 5843 5841 5837 5834 5831 5836 5835 5827 5815 5808 5804 5800 5798 5794 5790 5786 5782 5780 5778 5775 5771 5768 5766 5766 5766 5764 5763 5760 5757 5755 5755 5755 5754 5753 5750 5749 5750 5749 5748 5747 5747 5746 5745 5745
5826 5828 5831 5836 5838 5839 5834 5835 5832 5830 5835 5828 5821 5814 5811 5807 5803 5799 5794 5790 5787 5783 5781 5778 5774 5771 5767 5765 5763 5763 5763 5759 5760 5758 5756 5754 5754 5753 5751 5749 5748 5749 5748 5748 5747 5747 5746 5746 5745
5824 5820 5825 5831 5834 5835 5834 5822 5828 5834 5832 5823 5818 5815 5811 5808 5805 5801 5797 5793 5790 5786 5783 5778 5774 5771 5767 5765 5763 5763 5762 5761 5760 5757 5754 5752 5753 5751 5750 5751 5749 5749 5747 5745 5745 5745 5745 5745 5745
5816 5811 5809 5823 5830 5832 5824 5815 5830 5836 5829 5821 5819 5815 5810 5808 5806 5803 5800 5795 5792 5788 5783 5779 5777 5772 5768 5765 5762 5763 5763 5761 5759 5757 5755 5752 5751 5750 5749 5750 5750 5747 5747 5746 5745 5746 5745 5744 5744
5803 5802 5807 5813 5826 5827 5823 5821 5830 5835 5829 5821 5819 5816 5812 5807 5806 5805 5802 5798 5794 5790 5784 5780 5777 5773 5769 5765 5763 5762 5760 5759 5759 5758 5756 5753 5751 5750 5750 5750 5749 5747 5747 5747 5747 5747 5745 5743 5742
5798 5804 5805 5806 5818 5820 5818 5823 5827 5832 5829 5825 5821 5818 5814 5810 5808 5808 5804 5801 5796 5791 5786 5781 5777 5774 5770 5766 5763 5762 5760 5760 5759 5758 5755 5753 5752 5750 5750 5749 5748 5748 5748 5746 5745 5744 5743 5742 5742
5805 5804 5802 5806 5816 5813 5814 5818 5824 5829 5827 5825 5823 5820 5817 5814 5815 5812 5807 5803 5797 5792 5787 5782 5778 5775 5770 5767 5764 5761 5760 5760 5759 5758 5755 5753 5752 5751 5749 5750 5748 5747 5748 5746 5746 5745 5742 5743 5743
5793 5792 5796 5799 5808 5808 5809 5813 5824 5827 5826 5828 5826 5823 5821 5817 5815 5812 5808 5803 5799 5793 5789 5784 5780 5777 5773 5771 5767 5765 5763 5761 5760 5758 5755 5753 5752 5751 5751 5749 5749 5748 5747 5745 5745 5743 5743 5743 5744
5783 5787 5791 5789 5797 5806 5803 5802 5813 5823 5827 5829 5830 5829 5828 5823 5817 5813 5808 5805 5801 5796 5792 5789 5784 5780 5776 5774 5770 5766 5761 5759 5758 5757 5755 5754 5752 5751 5750 5749 5749 5748 5748 5746 5745 5744 5742 5741 5743
5772 5788 5788 5786 5784 5789 5794 5788 5806 5817 5818 5823 5827 5829 5829 5828 5824 5818 5813 5808 5805 5802 5798 5793 5787 5783 5778 5775 5772 5766 5762 5759 5760 5758 5758 5755 5753 5752 5750 5749 5748 5747 5748 5746 5746 5747 5745 5742 5742
5778 5785 5783 5784 5783 5784 5789 5787 5806 5815 5810 5820 5827 5830 5831 5831 5828 5823 5819 5815 5811 5807 5802 5796 5790 5785 5780 5777 5773 5767 5764 5764 5763 5760 5757 5755 5755 5752 5751 5749 5748 5747 5747 5747 5746 5746 5744 5744 5742
5776 5773 5773 5776 5779 5763 5782 5781 5792 5813 5814 5823 5830 5832 5833 5833 5831 5827 5824 5819 5814 5810 5805 5800 5793 5786 5783 5778 5775 5769 5766 5763 5761 5758 5756 5755 5755 5754 5752 5751 5749 5748 5748 5746 5745 5744 5744 5744 5743
5766 5759 5748 5746 5750 5761 5785 5779 5794 5819 5825 5826 5828 5832 5835 5834 5832 5828 5823 5819 5815 5811 5807 5801 5794 5787 5784 5780 5776 5772 5768 5764 5760 5759 5757 5756 5756 5754 5752 5752 5749 5749 5747 5746 5745 5744 5744 5744 5741
5761 5765 5754 5746 5752 5767 5771 5772 5800 5818 5824 5828 5830 5833 5833 5834 5833 5830 5827 5822 5817 5813 5808 5802 5796 5789 5785 5781 5777 5774 5770 5767 5765 5762 5760 5758 5757 5757 5755 5752 5750 5748 5747 5746 5744 5745 5744 5743 5742
5755 5761 5779 5768 5766 5764 5772 5781 5796 5812 5814 5820 5824 5827 5829 5831 5833 5831 5829 5824 5820 5816 5810 5805 5798 5791 5786 5783 5779 5775 5772 5768 5767 5764 5761 5760 5758 5757 5755 5752 5750 5749 5747 5746 5744 5743 5743 5743 5742
5767 5766 5760 5755 5744 5746 5762 5768 5783 5794 5802 5812 5817 5821 5825 5829 5830 5830 5828 5825 5822 5819 5813 5807 5800 5793 5789 5784 5780 5777 5773 5770 5766 5764 5761 5759 5757 5755 5753 5752 5751 5749 5747 5746 5744 5743 5743 5742 5742
5748 5753 5757 5760 5762 5754 5751 5768 5798 5799 5804 5808 5814 5819 5821 5824 5827 5827 5826 5825 5822 5818 5813 5806 5800 5794 5789 5785 5781 5778 5775 5771 5767 5764 5761 5759 5756 5754 5752 5751 5749 5748 5747 5746 5743 5743 5743 5741 5741
5754 5753 5753 5745 5745 5756 5762 5771 5798 5801 5804 5806 5809 5813 5817 5821 5824 5825 5823 5821 5818 5814 5810 5804 5799 5794 5790 5785 5781 5777 5774 5771 5767 5764 5762 5759 5756 5754 5752 5750 5748 5747 5747 5745 5743 5742 5742 5741 5739